• In Deutschland
  • Länderverzeichnis
  • Für 7 Tage
  • Wassertemperatur
  • Satellitenkarten
  • Wetterkarte
  • Widgets
  • user-avatar
    Anmelden

    Stündliche Wetter Meinerzhagen

    Heute, 17 August, Freitag

    Zeit Temperatur Niederschläge Wind Luftdruck Luftfeuchtigkeit
    00:00 +18°C° 0 mm 1 m/S 722 mmHg 70%
    01:00 +18°C° 0 mm 1 m/S 722 mmHg 73%
    02:00 +18°C° 0 mm 1 m/S 722 mmHg 74%
    03:00 +16°C° 0 mm 1 m/S 722 mmHg 76%
    04:00 +16°C° 0 mm 1 m/S 722 mmHg 77%
    05:00 +16°C° 0 mm 1 m/S 723 mmHg 77%
    06:00 +17°C° 0 mm 2 m/S 723 mmHg 78%
    07:00 +17°C° 0 mm 2 m/S 723 mmHg 75%
    08:00 +18°C° 0,1 mm 2 m/S 724 mmHg 72%
    09:00 +19°C° 0,1 mm 2 m/S 724 mmHg 69%
    10:00 +20°C° 0,1 mm 2 m/S 724 mmHg 66%
    11:00 +21°C° 0 mm 2 m/S 724 mmHg 62%
    12:00 +23°C° 0 mm 2 m/S 725 mmHg 58%
    13:00 +24°C° 0 mm 3 m/S 725 mmHg 54%
    14:00 +24°C° 0,2 mm 3 m/S 725 mmHg 57%
    15:00 +24°C° 0,2 mm 3 m/S 725 mmHg 59%
    16:00 +22°C° 0,2 mm 3 m/S 725 mmHg 62%
    17:00 +21°C° 0,1 mm 3 m/S 725 mmHg 63%
    18:00 +21°C° 0,1 mm 2 m/S 725 mmHg 65%
    19:00 +20°C° 0,1 mm 2 m/S 725 mmHg 67%
    20:00 +19°C° 0 mm 2 m/S 726 mmHg 70%
    21:00 +18°C° 0 mm 1 m/S 726 mmHg 73%
    22:00 +16°C° 0 mm 1 m/S 726 mmHg 75%
    23:00 +15°C° 0 mm 1 m/S 726 mmHg 76%

    Morgen, 18 August, Samstag

    Zeit Temperatur Niederschläge Wind Luftdruck Luftfeuchtigkeit
    00:00 +15°C° 0 mm 1 m/S 727 mmHg 77%
    01:00 +14°C° 0 mm 1 m/S 727 mmHg 78%
    02:00 +14°C° 0 mm 1 m/S 727 mmHg 79%
    03:00 +13°C° 0 mm 1 m/S 727 mmHg 79%
    04:00 +13°C° 0 mm 1 m/S 727 mmHg 80%
    05:00 +14°C° 0 mm 1 m/S 727 mmHg 78%
    06:00 +14°C° 0 mm 1 m/S 727 mmHg 75%
    07:00 +15°C° 0 mm 1 m/S 727 mmHg 73%
    08:00 +18°C° 0 mm 1 m/S 728 mmHg 65%
    09:00 +20°C° 0 mm 1 m/S 728 mmHg 57%
    10:00 +21°C° 0 mm 2 m/S 729 mmHg 49%
    11:00 +23°C° 0 mm 2 m/S 728 mmHg 45%
    12:00 +24°C° 0 mm 2 m/S 728 mmHg 40%
    13:00 +25°C° 0 mm 2 m/S 728 mmHg 36%
    14:00 +25°C° 0 mm 2 m/S 728 mmHg 35%
    15:00 +25°C° 0 mm 2 m/S 728 mmHg 34%
    16:00 +25°C° 0 mm 2 m/S 728 mmHg 33%
    17:00 +24°C° 0 mm 2 m/S 728 mmHg 39%
    18:00 +23°C° 0 mm 2 m/S 727 mmHg 45%
    19:00 +21°C° 0 mm 1 m/S 727 mmHg 52%
    20:00 +20°C° 0 mm 1 m/S 728 mmHg 55%
    21:00 +19°C° 0 mm 1 m/S 728 mmHg 59%
    22:00 +16°C° 0 mm 1 m/S 728 mmHg 63%
    23:00 +16°C° 0 mm 1 m/S 728 mmHg 67%

    übermorgen, 19 August, Sonntag

    Zeit Temperatur Niederschläge Wind Luftdruck Luftfeuchtigkeit
    00:00 +16°C° 0 mm 1 m/S 728 mmHg 71%
    01:00 +14°C° 0 mm 0 m/S 728 mmHg 74%
    02:00 +14°C° 0 mm 0 m/S 728 mmHg 77%
    03:00 +13°C° 0 mm 0 m/S 728 mmHg 79%
    04:00 +13°C° 0 mm 0 m/S 728 mmHg 82%
    05:00 +14°C° 0 mm 0 m/S 728 mmHg 80%
    06:00 +15°C° 0 mm 0 m/S 728 mmHg 79%
    07:00 +15°C° 0 mm 0 m/S 728 mmHg 77%
    08:00 +17°C° 0 mm 0 m/S 728 mmHg 70%
    09:00 +21°C° 0 mm 1 m/S 728 mmHg 62%
    10:00 +23°C° 0 mm 1 m/S 729 mmHg 54%
    11:00 +24°C° 0 mm 1 m/S 728 mmHg 51%
    12:00 +25°C° 0 mm 2 m/S 728 mmHg 47%
    13:00 +27°C° 0 mm 2 m/S 728 mmHg 43%
    14:00 +27°C° 0 mm 2 m/S 728 mmHg 43%
    15:00 +27°C° 0 mm 2 m/S 727 mmHg 42%
    16:00 +27°C° 0 mm 2 m/S 727 mmHg 42%
    17:00 +26°C° 0 mm 2 m/S 727 mmHg 47%
    18:00 +25°C° 0 mm 2 m/S 726 mmHg 53%
    19:00 +24°C° 0 mm 1 m/S 726 mmHg 58%
    20:00 +22°C° 0 mm 1 m/S 726 mmHg 62%
    21:00 +21°C° 0 mm 1 m/S 726 mmHg 66%
    22:00 +20°C° 0 mm 1 m/S 727 mmHg 70%
    23:00 +19°C° 0 mm 1 m/S 726 mmHg 72%

    20 August, Montag

    Zeit Temperatur Niederschläge Wind Luftdruck Luftfeuchtigkeit
    00:00 +18°C° 0 mm 1 m/S 726 mmHg 75%
    01:00 +18°C° 0 mm 1 m/S 726 mmHg 77%
    02:00 +18°C° 0 mm 1 m/S 726 mmHg 80%
    03:00 +16°C° 0 mm 1 m/S 726 mmHg 82%
    04:00 +16°C° 0 mm 1 m/S 725 mmHg 85%
    05:00 +16°C° 0 mm 1 m/S 725 mmHg 83%
    06:00 +18°C° 0 mm 1 m/S 726 mmHg 82%
    07:00 +18°C° 0 mm 1 m/S 726 mmHg 80%
    08:00 +19°C° 0 mm 2 m/S 726 mmHg 74%
    09:00 +20°C° 0 mm 2 m/S 726 mmHg 68%
    10:00 +22°C° 0 mm 3 m/S 726 mmHg 61%
    11:00 +22°C° 0 mm 3 m/S 726 mmHg 60%
    12:00 +22°C° 0 mm 3 m/S 726 mmHg 59%
    13:00 +24°C° 0 mm 3 m/S 726 mmHg 58%
    14:00 +24°C° 0 mm 3 m/S 726 mmHg 58%
    15:00 +24°C° 0 mm 3 m/S 726 mmHg 57%
    16:00 +25°C° 0 mm 3 m/S 726 mmHg 56%
    17:00 +24°C° 0 mm 2 m/S 726 mmHg 62%
    18:00 +23°C° 0 mm 2 m/S 726 mmHg 68%
    19:00 +22°C° 0 mm 1 m/S 726 mmHg 74%
    20:00 +21°C° 0 mm 1 m/S 726 mmHg 78%
    21:00 +20°C° 0 mm 1 m/S 726 mmHg 83%
    22:00 +18°C° 0 mm 1 m/S 726 mmHg 88%
    23:00 +18°C° 0 mm 1 m/S 726 mmHg 89%

    21 August, Dienstag

    Zeit Temperatur Niederschläge Wind Luftdruck Luftfeuchtigkeit
    00:00 +18°C° 0 mm 1 m/S 726 mmHg 90%
    01:00 +18°C° 0 mm 1 m/S 726 mmHg 91%
    02:00 +16°C° 0 mm 1 m/S 726 mmHg 91%
    03:00 +16°C° 0 mm 1 m/S 726 mmHg 92%
    04:00 +16°C° 0 mm 1 m/S 726 mmHg 92%
    05:00 +16°C° 0 mm 1 m/S 727 mmHg 91%
    06:00 +16°C° 0 mm 1 m/S 727 mmHg 90%
    07:00 +16°C° 0 mm 1 m/S 727 mmHg 90%
    08:00 +19°C° 0 mm 1 m/S 727 mmHg 83%
    09:00 +20°C° 0 mm 1 m/S 727 mmHg 76%
    10:00 +21°C° 0 mm 1 m/S 727 mmHg 69%
    11:00 +23°C° 0 mm 1 m/S 727 mmHg 61%
    12:00 +25°C° 0 mm 1 m/S 727 mmHg 52%
    13:00 +26°C° 0 mm 1 m/S 727 mmHg 44%
    14:00 +27°C° 0 mm 1 m/S 727 mmHg 43%
    15:00 +27°C° 0 mm 1 m/S 727 mmHg 42%
    16:00 +27°C° 0 mm 1 m/S 726 mmHg 41%
    17:00 +26°C° 0 mm 1 m/S 726 mmHg 46%
    18:00 +25°C° 0 mm 1 m/S 726 mmHg 52%
    19:00 +23°C° 0 mm 1 m/S 726 mmHg 58%
    20:00 +22°C° 0 mm 1 m/S 726 mmHg 62%
    21:00 +21°C° 0 mm 1 m/S 726 mmHg 66%
    22:00 +20°C° 0 mm 1 m/S 726 mmHg 70%
    23:00 +19°C° 0 mm 1 m/S 726 mmHg 73%

    22 August, Mittwoch

    Zeit Temperatur Niederschläge Wind Luftdruck Luftfeuchtigkeit
    00:00 +19°C° 0 mm 1 m/S 726 mmHg 75%
    01:00 +18°C° 0 mm 1 m/S 726 mmHg 78%
    02:00 +18°C° 0 mm 1 m/S 726 mmHg 81%
    03:00 +18°C° 0 mm 1 m/S 726 mmHg 84%
    04:00 +16°C° 0 mm 1 m/S 725 mmHg 86%
    05:00 +18°C° 0 mm 1 m/S 726 mmHg 85%
    06:00 +18°C° 0 mm 1 m/S 726 mmHg 84%
    07:00 +19°C° 0 mm 1 m/S 726 mmHg 82%
    08:00 +21°C° 0 mm 1 m/S 726 mmHg 75%
    09:00 +22°C° 0 mm 1 m/S 726 mmHg 67%
    10:00 +24°C° 0 mm 2 m/S 727 mmHg 59%
    11:00 +25°C° 0 mm 2 m/S 727 mmHg 57%
    12:00 +25°C° 0 mm 2 m/S 727 mmHg 54%
    13:00 +26°C° 0 mm 2 m/S 727 mmHg 52%
    14:00 +26°C° 0 mm 2 m/S 726 mmHg 53%
    15:00 +25°C° 0 mm 2 m/S 726 mmHg 54%
    16:00 +25°C° 0 mm 3 m/S 726 mmHg 54%
    17:00 +24°C° 0 mm 2 m/S 726 mmHg 59%
    18:00 +23°C° 0 mm 2 m/S 726 mmHg 64%
    19:00 +21°C° 0 mm 2 m/S 726 mmHg 68%
    20:00 +20°C° 0 mm 2 m/S 726 mmHg 72%
    21:00 +20°C° 0 mm 1 m/S 726 mmHg 76%
    22:00 +19°C° 0 mm 1 m/S 727 mmHg 80%
    23:00 +18°C° 0 mm 1 m/S 727 mmHg 82%
    Mehr zeigen